www.pogodaiklimat.ru

Погода и климат >> Архив погоды >> Россия >> Якутия >> Тонгулах


ПОГОДА в Тонгулахе

  • Прогноз погоды в Тонгулахе
  • Монитор погоды в Тонгулахе
  • Климат города

АРХИВ ПОГОДЫ в Тонгулахе

Время (UTC), дата Ветер
(напр.,м/с)
 
Видим.   Явления Облачность Т
(С)
Тd
(С)
f
(%)
Тe
(С)
Тes
(С)
Комфортность P
(гПа)
Po
(гПа)
Тmin
(С)
Tmax
(С)
R
(мм)
R24
(мм)
S
(см)
15 17.06 штиль 0 20 км ясно +12.0 +11.5 97 +11 +11 1005.5 982.0
18 17.06 штиль 0 50 км ясно +10.2 +9.8 97 +9 +9 1006.1 982.4
21 17.06 штиль 0 50 км ясно +10.1 +9.5 96 +9 +11 1007.0 983.2
00 18.06 штиль 0 50 км ясно +22.5 +15.7 65 +26 +37 жарко 1006.4 983.6 +9.6
03 18.06 штиль 0 50 км 6/3 600 м
[Cu med, cong Ci fib]
+28.9 +16.2 46 +32 +44 душно 1006.1 983.8
06 18.06 СЗ 2 50 км 8/5 600 м
[Cu med, cong Ci fib]
+29.3 +15.2 42 +32 +37 душно 1005.4 983.1
09 18.06 СЗ 1 50 км 8/8 1000 м
[Cb cap]
+21.3 +16.2 73 +25 +26 комфорт 1008.2 985.3
12 18.06 штиль 0 50 км 10/0
[Cs]
+19.7 +15.3 76 +22 +22 комфорт 1008.8 985.8 +29.3
15 18.06 штиль 0 20 км 10/5 1000 м
[Cu hum Cs]
+15.7 +14.7 94 +15 +15 1010.4 987.1
18 18.06 штиль 0 50 км 8/4 1000 м
[Cu hum Ci fib]
+13.1 +12.4 96 +13 +13 1011.6 988.0
21 18.06 С 1 50 км 6/0
[Ac trans]
+13.5 +10.2 80 +14 +15 1012.4 988.8
00 19.06 С 1 50 км 3/0
[Ac trans Ci fib]
+17.1 +9.5 61 +18 +26 1013.0 989.6 +12.7
03 19.06 СЗ 1 50 км ясно +22.1 +10.2 47 +24 +40 комфорт 1012.1 989.4
06 19.06 СЗ 1 50 км 3/0
[Ci fib]
+25.6 +10.7 39 +27 +39 жарко 1010.0 987.4
09 19.06 З 1 50 км 6/0
[Ci fib]
+26.1 +10.8 38 +27 +31 жарко 1009.1 986.5
12 19.06 штиль 0 50 км 10/0
[As trans Ci fib]
+20.3 +12.7 62 +22 +22 комфорт 1009.8 986.9 +27.6
15 19.06 штиль 0 20 км 10/0
[As trans Ci fib]
+12.3 +10.2 87 +12 +12 1010.9 987.3
18 19.06 штиль 0 50 км 10/0
[As trans Ci fib]
+11.0 +9.6 91 +10 +10 1011.5 987.6
21 19.06 штиль 0 50 км 8/0
[As trans]
+9.6 +9.2 97 +9 +10 1011.4 987.4
00 20.06 штиль 0 50 км 8/0
[Ci fib]
+20.4 +15.8 75 +23 +32 комфорт 1009.6 986.7 +9.4
03 20.06 СЗ 2 50 км 10/0
[Ac As]
+23.0 +15.5 63 +27 +31 душно 1008.5 985.8
06 20.06 СЗ 2 50 км 8/0
[Ci sp]
+24.8 +16.0 58 +28 +37 жарко 1007.1 984.5
09 20.06 СЗ 2 50 км 6/0
[Ci sp]
+24.4 +16.6 62 +28 +32 душно 1005.0 983.4
12 20.06 штиль 0 50 км 8/0
[Ac trans]
+23.4 +16.7 66 +28 +29 душно 1005.8 983.1 +25.0
15 20.06 штиль 0 20 км 6/0
[Ac trans]
+17.8 +16.6 93 +18 +18 1005.3 982.3
18 20.06 штиль 0 50 км 6/0
[Ac trans]
+15.4 +14.9 97 +15 +15 1005.2 982.0
21 20.06 штиль 0 50 км 8/3 600 м
[Cu hum Ac trans]
+18.0 +17.5 97 +18 +19 1007.0 983.9
00 21.06 штиль 0 50 км 4/0
[Ac trans]
+21.9 +19.6 87 +27 +36 душно 1007.4 984.6 +15.1
03 21.06 штиль 0 50 км 4/3 1000 м
[Cu hum Ac trans]
+25.7 +19.9 70 +31 +43 очень
душно
1006.7 984.2
06 21.06 штиль 0 50 км 8/0
[Ac trans]
+26.7 +19.8 66 +33 +40 очень
душно
1005.0 982.6
09 21.06 штиль 0 50 км 9/0
[Ci fib]
+28.9 +21.1 63 +36 +41 очень
душно
1003.3 981.2
12 21.06 штиль 0 50 км 8/0
[Ci fib]
+25.3 +20.4 74 +31 +32 очень
душно
1003.3 980.9 +29.1
15 21.06 штиль 0 20 км ясно +16.5 +16.0 97 +16 +16 1003.8 980.7
18 21.06 штиль 0 50 км 4/0
[Ci fib]
+13.3 +12.9 97 +13 +13 1003.6 980.2
21 21.06 штиль 0 50 км 10/3 600 м
[Cu med, cong Ci fib]
+13.9 +12.2 89 +13 +15 1004.2 980.8
00 22.06 штиль 0 50 км 6/0
[Ci fib]
+26.9 +14.4 46 +29 +39 жарко 1002.8 980.5 +12.9
03 22.06 ЮЗ 1 50 км ясно +33.1 +9.5 23 +32 +48 жарко 1001.7 979.8
06 22.06 З 1 50 км 8/8 600 м
[Cu med, cong]
+34.5 +10.3 23 +34 +36 очень
жарко
1000.6 978.8
09 22.06 З 1 50 км 4/4 600 м
[Cu med, cong]
+34.6 +10.7 23 +34 +37 очень
жарко
1000.0 978.2
12 22.06 штиль 0 50 км ясно +28.9 +15.4 44 +32 +32 душно 1000.3 978.2 +36.1
15 22.06 штиль 0 20 км ясно +18.7 +14.0 74 +19 +19 1001.8 978.8
18 22.06 штиль 0 50 км ясно +17.0 +13.3 79 +17 +17 1002.3 979.2
21 22.06 штиль 0 10 км 6/0
[Ci fib]
+12.4 +12.0 97 +12 +14 1002.3 978.8
00 23.06 штиль 0 50 км 6/0
[Ci fib]
+28.0 +17.1 52 +41 +50 опасность
перегрева
1000.8 978.7 +12.3
03 23.06 штиль 0 50 км 8/0
[Ci fib]
+31.8 +22.5 58 +41 +56 опасность
перегрева
999.0 978.1
06 23.06 штиль 0 50 км 8/0
[Ci fib]
+34.0 +22.1 50 +43 +55 опасность
перегрева
998.3 975.6
09 23.06 штиль 0 50 км 6/0
[Ci fib]
+33.0 +22.0 52 +41 +46 опасность
перегрева
998.0 976.3
12 23.06 штиль 0 50 км 8/0
[Ci fib]
+25.2 +20.3 74 +31 +31 очень
душно
998.5 976.2 +34.3
15 23.06 штиль 0 20 км 6/0
[Ci fib]
+21.8 +19.0 84 +27 +27 душно 1000.3 977.6
18 23.06 штиль 0 50 км 8/0
[Ci fib]
+19.6 +17.8 89 +22 +22 комфорт 1001.4 978.6
21 23.06 штиль 0 50 км 6/0
[Ci fib]
+16.7 +16.0 96 +17 +18 1003.5 980.4
00 24.06 СЗ 1 50 км 10/0
[Ci fib]
+24.1 +19.4 75 +29 +37 душно 1003.7 981.2 +15.3
03 24.06 СЗ 2 50 км 10/4 1000 м
[Cu hum Ci fib]
+24.6 +20.6 78 +31 +37 очень
душно
1005.2 982.6
06 24.06 СЗ 2 50 км 10/4 1000 м
[Cu hum Ci fib]
+25.5 +20.8 75 +32 +37 очень
душно
1005.3 982.8
09 24.06 СЗ 2 50 км 8/0
[Ac trans]
+22.5 +18.2 77 +28 +30 душно 1006.6 983.9
12 24.06 штиль 0 50 км 3/0
[Ac trans]
+20.1 +16.6 80 +23 +23 комфорт 1007.7 984.8 +25.6

 

Местоположение метеостанции Тонгулах (Якутия, Россия): широта 61.92 долгота 124.50 высота над уровнем моря 199 м.

В архиве по умолчанию представлена погода в Тонгулахе за последнюю неделю. Архивные данные за месяц целиком и за предыдущие месяцы, начиная с января 2011 года, Вы можете получить, выбрав интересующий диапазон дат из раскрывающегося списка и нажав кнопку "Ввод!".

Внимание! Время в таблицах - всемирное. Для получения местного времени необходимо прибавить поправку, которая в Тонгулахе равна 9 ч.

Смотрите также архив погоды в соседних городах и на ближайших метеорологических станциях:

Погода в Исите (Якутия, Россия) (130 км)
Погода в Бердигестяхе (Якутия, Россия) (136 км)
Погода в Хатырык-Хомо (Якутия, Россия) (226 км)
Погода в Покровске (Якутия, Россия) (247 км)
Погода в Вилюйске (Якутия, Россия) (253 км)
Погода в Якутске (Якутия, Россия) (267 км)
Погода в Сангаре (Якутия, Россия) (269 км)
Погода в Олекминске (Якутия, Россия) (277 км)
Погода в Верхневилюйске (Якутия, Россия) (278 км)
Погода в Намцах (Якутия, Россия) (278 км)

Пояснения к столбцам:

Ветер - указаны скорость ветра в м/с - средняя за 10 мин, порывы в срок и между сроками (в фигурных скобках) и направление, откуда дует ветер: С - северный, СВ - северо-восточный, В - восточный, ЮВ - юго-восточный, Ю - южный, ЮЗ - юго-западный, З - западный, СЗ - северо-западный.
Видимость - горизонтальная дальность видимости в метрах или километрах. При видимости от 1 до 10 км при отсутствии осадков обычно наблюдается дымка, при ухудшении видимости до 1 км и менее - туман. В сухую погоду видимость может ухудшаться дымом, пылью или мглою.
Явления - указаны атмосферные явления, наблюдавшиеся в срок или в последний час перед сроком; фигурными скобками обозначены явления, наблюдавшиеся между сроками (за 1-3 часа до срока); квадратными скобками обозначены град или гололедные отложения с указанием их диаметра в мм.
Облачность - указаны через наклонную черту общая и нижняя облачность в баллах и высота нижней границы облаков в метрах; квадратными скобками обозначены формы облаков: Ci - перистые, Cs - перисто-слоистые, Cc - перисто-кучевые, Ac - высококучевые, As - высокослоистые, Sc - слоисто-кучевые, Ns - слоисто-дождевые, Cu - кучевые, Cb - кучево-дождевые. Подробнее классификацию облаков см. в Атласе облаков (PDF).
T - Температура воздуха - температура, измеренная на высоте 2 м над землей.
Td - Температура точки росы - температура, при понижении до которой содержащийся в воздухе водяной пар достигнет насыщения.
f - Относительная влажность воздуха - влажноcть воздуха, измеренная на высоте 2 м над землей.
Te - Эффективная температура - температура, которую ощущает одетый по сезону человек в тени. Характеристика душности погоды. При расчете учитывается влияние влажности воздуха и скорости ветра на теплоощущения человека.
Tes - Эффективная температура на солнце - температура, которую ощущает человек, с поправкой на солнечный нагрев. Характеристика знойности погоды. Зависит от высоты солнца над горизонтом, облачности и скорости ветра. Ночью, в пасмурную погоду, а также при ветре 12 м/с и более поправка равна нулю.
P - Атмосферное давление - приведенное к уровню моря атмосферное давление.
Po - Атмосферное давление - измеренное на уровне метеостанции атмосферное давление.
Tmin - Минимальная температура - минимум температуры воздуха на высоте 2 м над землей.
Tmax - Максимальная температура - максимум температуры воздуха на высоте 2 м над землей.
R - Количество осадков - Количество выпавших осадков за период времени, мм. При наведении курсора мыши на число - период времени, за который выпало указанное количество осадков.
R24 - Количество осадков - Количество выпавших осадков за 24 часа, мм.
S - Снежный покров - Высота снежного покрова, см. При наведении курсора мыши на число - состояние снежного покрова и степень покрытия местности в баллах.